Regional Weather Roundup
Issued by NWS

Home | Current Version | Previous Version | Graphics & Text | Print | Product List | Glossary On
Versions: 1 2 3 4 5 6 7 8 9 10 11 12 13 14 15 16 17 18 19 20 21 22 23 24 25 26 27 28 29 30 31 32 33 34 35 36 37 38 39 40 41 42 43 44 45 46 47 48 49 50
000
ASUS45 KTFX 221304
RWRMT
MONTANA HOURLY WEATHER ROUNDUP
NATIONAL WEATHER SERVICE GREAT FALLS MT
704 AM MDT TUE JUL 22 2014

NOTE: "FAIR" INDICATES FEW OR NO CLOUDS BELOW 12000 FEET WITH NO
SIGNIFICANT WEATHER AND/OR OBSTRUCTIONS TO VISIBILITY.

* THESE STATIONS ARE NOT UNDER NWS QUALITY CONTROL. THEY DO NOT
   REPORT WEATHER SUCH AS PRECIPITATION OR FOG.

MTZ001>007-043-221400-
WEST OF THE DIVIDE
CITY           SKY/WX    TMP DP  RH WIND       PRES   REMARKS
KALISPELL      CLOUDY    52  46  80 NW3       30.13R
MISSOULA       CLOUDY    54  43  67 SW3       30.16R
BUTTE          CLOUDY    55  50  83 S3        30.28R
MULLAN PASS    CLOUDY    55  30  39 SE8       30.22S
* ESSEX        N/A       50  41  71 S10G18     N/A
* LINCOLN      N/A       52  51  96 SW1        N/A
* LOOKOUT PASS N/A       51  42  71 SE2        N/A
* POLSON       N/A       53  42  66 N/A        N/A
* RONAN APT    MOCLDY    48  45  89 N/A        N/A
* SEELEY LAKE  N/A       42  39  89 NE1        N/A
* THOMP F APT  CLOUDY    51  47  86 NE3        N/A
* YAAK HILL    N/A       55  47  75 E1         N/A
$$

MTZ008-052>055-221400-
SOUTHWEST MONTANA
CITY           SKY/WX    TMP DP  RH WIND       PRES   REMARKS
BOZEMAN        CLOUDY    61  52  72 S3        30.22R
DILLON         PTCLDY    55  50  83 SW6       30.25R
W YELLOWSTONE  PTCLDY    43  43 100 CALM      30.37R
* THREE FORKS  MOCLDY    59  59 100 N/A        N/A
* BOULDER HILL N/A       54  49  83 S3         N/A
* MONIDA PASS  N/A       48  45  89 SE9        N/A
* RAYNOLDS PAS N/A       50  31  48 SE10       N/A
* WHITEHALL    N/A       58  54  87 NW2        N/A
* WISE RIVER   N/A       54  51  90 W3         N/A
$$

MTZ009>010-012-014-046-048-049-054-221400-
EAST SLOPES AND CENTRAL MONTANA
CITY           SKY/WX    TMP DP  RH WIND       PRES   REMARKS
CUT BANK       CLOUDY    52  48  86 N3        30.18R
GREAT FALLS    CLOUDY    57  52  83 W3        30.15S
HELENA         CLOUDY    64  48  56 W6        30.19R
MALMSTROM AFB  CLOUDY    61  50  67 W3        30.17R
* CONRAD       MOCLDY    46  46 100 N/A        N/A
* DEARBORN     N/A       59  54  84 S1         N/A
* EAST GLACIER N/A       48  42  80 N7         N/A
* MONARCH      N/A       58  43  58 S1G6       N/A
* ROGERS PASS  N/A       56  46  69 NW3        N/A
* SAINT MARY   N/A       42  40  93 SE3        N/A
* SWEET GRASS  N/A       55  53  93 S6         N/A
$$

MTZ011-013-016-021-035-040-045-047-050-051-221400-
NORTH CENTRAL MONTANA
CITY           SKY/WX    TMP DP  RH WIND       PRES   REMARKS
HAVRE          MOCLDY    54  50  86 E8        30.15S
LEWISTOWN      CLOUDY    61  55  81 E6        30.21R
* CHESTER      N/A       52  48  86 NE3        N/A
* DENTON       N/A       58  55  90 E4         N/A
* GEYSER       N/A       58  50  75 SW4        N/A
* JUDITH GAP   N/A       59  52  78 NE4        N/A
* LOMA         N/A       60  52  75 SE2        N/A
$$

MTZ017>020-022>027-061-062-221400-
NORTHEAST MONTANA
CITY           SKY/WX    TMP DP  RH WIND       PRES   REMARKS
GLASGOW        PTCLDY    59  54  84 N3        30.14R
GLENDIVE       PTCLDY    64  57  78 CALM      30.17R
JORDAN         MOCLDY    61  52  72 W5        30.15R
SIDNEY         CLEAR     61  57  87 CALM      30.16S
WOLF POINT     FOG       55  54  96 CALM      30.14R
* BEAVER HILL  N/A       61  57  87 SE1        N/A
* CIRCLE       N/A       57  55  93 N/A        N/A
* LINDSAY DVD  N/A       64  60  87 SW2        N/A
* NAVAJO       N/A       58  55  90 NE6        N/A
* SACO         N/A       53  52  96 N/A        N/A
$$

MTZ028>042-056>058-221400-
SOUTHCENTRAL AND SOUTHEAST MONTANA
CITY           SKY/WX    TMP DP  RH WIND       PRES   REMARKS
BAKER          MOCLDY    63  61  93 SE3       30.19R
BILLINGS       PTCLDY    64  55  73 CALM      30.18S
LIVINGSTON     MOCLDY    59  50  72 CALM      30.22S
MILES CITY     MOCLDY    68  59  73 NE3       30.15R
* LAUREL APT   PTCLDY    57  48  72 N/A        N/A
* ROUNDUP APT  PTCLDY    57  54  90 N/A        N/A
* ALZADA       N/A       59  57  93 SE1        N/A
* HYSHAM       N/A       66  53  63 N/A        N/A
* LAME DEER    N/A       65  54  68 SE4        N/A
* REED POINT   N/A       56  54  93 NW2        N/A
* ROSCOE HILL  N/A       58  44  60 VRB5G12    N/A
$$

REGIONAL REPORTS...DAKOTAS
CITY           SKY/WX    TMP DP  RH WIND       PRES   REMARKS
WILLISTON      FOG       61  59  93 CALM      30.15R VSB 3
DICKINSON      FOG       61  59  93 CALM      30.16R
CROSBY         N/A       59  59 100 CALM      30.15R
TIOGA          FOG       55  55 100 CALM      30.18R VSB 2
WATFORD CITY   FOG       55  55 100 CALM      30.14S VSB 3/4
BISMARCK       CLOUDY    68  64  87 NW3       30.15R
GRAND FORKS    CLEAR     64  61  90 NW10      30.04R
FARGO          CLEAR     66  61  84 NW13      30.04R
BUFFALO SD     PTCLDY    61  59  93 CALM      30.14R
RAPID CITY     PTCLDY    66  64  93 N5        30.20R
$$

REGIONAL REPORTS...WYOMING/IDAHO/WASHINGTON
CITY           SKY/WX    TMP DP  RH WIND       PRES   REMARKS
GILLETTE       MOCLDY    64  57  78 CALM      30.23R
SHERIDAN       MOCLDY    57  54  90 SW5       30.20R
CODY           MOCLDY    64  45  50 CALM      30.24S
YELLOWSTONE LA PTCLDY    41  39  93 NW3       30.46R
SALMON         MOCLDY    61  52  72 CALM      30.17R
MULLAN PASS    CLOUDY    55  30  39 SE8       30.22S
SAND POINT     MOCLDY    55  48  77 NE5       30.06F
SPOKANE        LGT RAIN  63  48  58 E6        30.05R
$$

REGIONAL REPORTS...SASKATCHEWAN
CITY           SKY/WX    TMP DP  RH WIND       PRES   REMARKS
SWIFT CURRENT  FOG       54  52  93 VRB2      30.18S VSB 3

$$



USA.gov is the U.S. government's official web portal to all federal, state and local government web resources and services.